TimeGMT,TemperatureF,Dew PointF,Humidity,Sea Level PressureIn,VisibilityMPH,Wind Direction,Wind SpeedMPH,Gust SpeedMPH,PrecipitationIn,Events,Conditions,WindDirDegrees,DateUTC
12:20 AM,37.4,33.8,87,30.30,6.2,WNW,5.8,-,N/A,,Mostly Cloudy,300,2013-03-03 00:20:00
12:50 AM,35.6,32.0,87,30.30,6.2,Variable,2.3,-,N/A,,Mostly Cloudy,0,2013-03-03 00:50:00
1:20 AM,37.4,33.8,87,30.30,6.2,Variable,2.3,-,N/A,,Mostly Cloudy,0,2013-03-03 01:20:00
4:50 AM,37.4,35.6,93,30.27,6.2,South,4.6,-,N/A,,Mostly Cloudy,190,2013-03-03 04:50:00
5:50 AM,37.4,35.6,93,30.27,6.2,South,2.3,-,N/A,,Mostly Cloudy,180,2013-03-03 05:50:00
6:20 AM,39.2,35.6,87,30.27,6.2,South,3.5,-,N/A,,Mostly Cloudy,190,2013-03-03 06:20:00
6:50 AM,37.4,35.6,93,30.27,6.2,Variable,1.2,-,N/A,,Mostly Cloudy,0,2013-03-03 06:50:00
7:20 AM,37.4,35.6,93,30.27,6.2,Variable,1.2,-,N/A,,Mostly Cloudy,0,2013-03-03 07:20:00
7:50 AM,37.4,35.6,93,30.27,5.6,Variable,1.2,-,N/A,,Mostly Cloudy,0,2013-03-03 07:50:00
8:20 AM,41.0,37.4,87,30.27,5.6,SE,2.3,-,N/A,,Mostly Cloudy,140,2013-03-03 08:20:00
8:50 AM,41.0,37.4,87,30.27,5.6,Variable,1.2,-,N/A,,Mostly Cloudy,0,2013-03-03 08:50:00
9:20 AM,41.0,37.4,87,30.27,5.6,SSW,2.3,-,N/A,,Mostly Cloudy,210,2013-03-03 09:20:00
9:50 AM,42.8,37.4,81,30.27,5.6,SSW,3.5,-,N/A,,Overcast,200,2013-03-03 09:50:00
10:20 AM,44.6,37.4,76,30.27,5.6,SW,2.3,-,N/A,,Overcast,220,2013-03-03 10:20:00
10:50 AM,46.4,37.4,71,30.27,6.2,Variable,2.3,-,N/A,,Mostly Cloudy,0,2013-03-03 10:50:00
11:20 AM,46.4,37.4,71,30.27,6.2,Variable,3.5,-,N/A,,Mostly Cloudy,0,2013-03-03 11:20:00
11:50 AM,48.2,37.4,66,30.27,6.2,Variable,2.3,-,N/A,,Mostly Cloudy,0,2013-03-03 11:50:00
12:20 PM,48.2,37.4,66,30.27,6.2,Variable,3.5,-,N/A,,Mostly Cloudy,0,2013-03-03 12:20:00
12:50 PM,48.2,37.4,66,30.24,6.2,Variable,3.5,-,N/A,,Overcast,0,2013-03-03 12:50:00
1:20 PM,48.2,37.4,66,30.24,6.2,SE,4.6,-,N/A,,Mostly Cloudy,130,2013-03-03 13:20:00
1:50 PM,48.2,37.4,66,30.24,6.2,ESE,4.6,-,N/A,,Overcast,120,2013-03-03 13:50:00
2:20 PM,50.0,37.4,62,30.24,6.2,Variable,3.5,-,N/A,,Mostly Cloudy,0,2013-03-03 14:20:00
2:50 PM,50.0,37.4,62,30.21,6.2,ESE,5.8,-,N/A,,Mostly Cloudy,120,2013-03-03 14:50:00
3:20 PM,48.2,37.4,66,30.21,6.2,SE,4.6,-,N/A,,Mostly Cloudy,130,2013-03-03 15:20:00
3:50 PM,48.2,37.4,66,30.21,6.2,SE,5.8,-,N/A,,Mostly Cloudy,130,2013-03-03 15:50:00
4:20 PM,48.2,37.4,66,30.21,6.2,SE,5.8,-,N/A,,Mostly Cloudy,130,2013-03-03 16:20:00
4:50 PM,48.2,37.4,66,30.21,6.2,SE,4.6,-,N/A,,Mostly Cloudy,130,2013-03-03 16:50:00
5:20 PM,46.4,37.4,71,30.21,6.2,ESE,4.6,-,N/A,,Mostly Cloudy,120,2013-03-03 17:20:00
5:50 PM,46.4,37.4,71,30.21,6.2,ESE,4.6,-,N/A,,Mostly Cloudy,120,2013-03-03 17:50:00
6:20 PM,46.4,37.4,71,30.21,6.2,ESE,4.6,-,N/A,,Mostly Cloudy,120,2013-03-03 18:20:00
6:50 PM,46.4,37.4,71,30.21,6.2,SE,4.6,-,N/A,,Mostly Cloudy,130,2013-03-03 18:50:00
7:20 PM,46.4,37.4,71,30.18,6.2,SE,4.6,-,N/A,,Mostly Cloudy,130,2013-03-03 19:20:00
7:50 PM,44.6,37.4,76,30.18,6.2,SSE,5.8,-,N/A,,Mostly Cloudy,150,2013-03-03 19:50:00
8:20 PM,44.6,37.4,76,30.18,6.2,SSE,5.8,-,N/A,,Mostly Cloudy,150,2013-03-03 20:20:00
8:50 PM,44.6,37.4,76,30.18,6.2,SE,4.6,-,N/A,,Mostly Cloudy,130,2013-03-03 20:50:00
9:20 PM,42.8,35.6,76,30.18,6.2,SE,4.6,-,N/A,,Mostly Cloudy,140,2013-03-03 21:20:00
9:50 PM,41.0,35.6,81,30.18,6.2,SE,4.6,-,N/A,,Scattered Clouds,130,2013-03-03 21:50:00
10:20 PM,39.2,35.6,87,30.18,6.2,SE,4.6,-,N/A,,Scattered Clouds,130,2013-03-03 22:20:00
10:50 PM,37.4,33.8,87,30.18,6.2,SE,3.5,-,N/A,,Scattered Clouds,130,2013-03-03 22:50:00
11:20 PM,35.6,32.0,87,30.18,6.2,SE,2.3,-,N/A,,Scattered Clouds,130,2013-03-03 23:20:00
11:50 PM,33.8,32.0,93,30.15,6.2,ESE,4.6,-,N/A,,Scattered Clouds,120,2013-03-03 23:50:00